Probability
17 18 19 17 14 12 12 12 14 13 11 8 7 5 4 3 3 4 5 4 5 7 9 9 10 8 6 4 2 1 2 2 1 2 4 5 5 4 4 6 7 4 3
16 17 18 17 15 13 13 14 15 14 11 8 6 4 3 3 3 4 5 5 5 7 8 10 10 9 7 6 4 2 1 1 1 3 4 5 5 4 4 4 4 3 2
14 15 16 15 15 14 14 15 15 14 11 8 5 4 3 3 3 4 5 5 5 6 7 10 10 9 8 8 7 5 3 2 3 3 4 4 4 3 3 2 1 1 1
14 14 15 15 14 15 15 15 14 13 11 8 6 4 3 3 3 3 4 4 5 6 8 9 9 8 8 8 7 6 5 5 5 4 3 3 4 3 2 1 0 0 0
16 16 16 17 17 17 17 16 14 12 10 9 7 5 3 2 1 1 2 3 5 6 8 9 9 7 5 3 3 4 4 5 5 5 4 4 4 4 2 1 1 0 0
19 17 17 19 20 20 19 18 16 13 11 10 9 6 3 1 0 0 1 2 4 6 8 9 7 5 2 1 0 1 2 2 2 4 4 4 4 4 3 3 2 1 1
23 20 18 18 20 21 20 19 18 17 15 13 11 9 5 2 0 0 0 1 3 5 8 9 8 5 2 0 0 0 0 0 1 2 3 2 2 2 2 2 2 2 2
25 22 19 17 18 18 19 21 21 20 19 17 15 13 10 4 0 0 0 0 2 4 6 9 10 6 2 0 0 0 0 1 0 0 1 1 0 1 1 1 1 2 2
23 22 20 17 16 17 19 23 23 23 21 18 16 15 13 7 2 0 0 0 2 2 3 5 7 5 1 0 0 0 0 0 0 0 0 0 0 0 0 0 0 1 1
20 20 18 16 16 18 22 25 24 23 21 17 15 15 15 11 4 1 0 0 1 1 0 1 2 1 0 0 0 0 0 0 0 0 0 0 0 0 0 0 0 0 0
17 16 15 13 14 18 24 26 25 23 20 18 17 17 17 13 6 1 0 0 0 0 1 1 0 0 0 0 0 0 0 0 0 0 0 0 0 0 0 0 0 0 0
14 13 12 12 12 15 21 25 25 22 18 16 16 15 15 12 7 2 0 0 0 0 1 1 0 0 0 0 0 0 0 0 0 0 0 0 0 0 0 0 0 0 0
11 11 11 12 12 15 19 22 22 19 15 11 10 10 11 11 9 3 0 0 0 0 1 1 0 0 0 0 0 0 0 0 0 0 0 0 0 0 0 0 0 1 1
11 12 11 12 14 16 20 21 20 18 13 9 7 7 7 9 7 3 0 0 0 0 0 0 0 0 0 0 1 1 1 1 0 0 0 0 0 0 0 0 0 0 0
13 13 12 12 15 18 20 19 16 14 11 8 6 5 4 4 3 1 0 0 0 0 0 0 0 0 0 0 1 2 2 1 0 0 0 0 0 0 0 0 0 0 0
16 15 13 13 16 18 18 16 11 7 5 3 3 3 1 1 0 0 0 0 0 0 0 0 0 0 0 0 1 1 1 1 0 0 0 0 0 0 0 0 0 0 0
16 15 13 12 15 16 16 14 10 5 1 0 1 1 0 0 0 0 0 0 0 0 0 0 0 0 0 0 0 0 0 0 0 0 0 0 0 0 0 0 0 0 0
13 12 11 11 12 13 13 13 10 6 2 1 0 0 0 0 0 0 0 0 0 0 0 0 0 1 1 1 1 1 1 0 0 0 0 0 0 0 0 0 0 0 0
8 8 8 8 8 8 9 9 7 4 2 2 2 1 0 0 0 0 0 0 0 0 0 0 1 2 2 1 1 2 1 0 0 0 0 0 0 0 0 0 0 0 0
4 4 5 6 6 6 6 6 5 3 2 2 3 2 1 0 0 0 0 0 0 0 0 0 1 1 1 0 1 2 2 1 0 0 0 0 0 0 0 0 0 0 0
3 3 4 4 5 5 5 5 5 4 1 1 2 2 1 0 0 0 0 0 0 0 0 0 0 1 1 1 2 3 2 1 0 0 0 0 0 0 0 0 0 0 0
2 3 3 4 4 4 4 4 4 3 1 1 1 1 0 0 0 0 0 0 1 1 2 2 1 1 1 2 3 3 2 1 0 0 0 0 0 0 0 0 0 0 0
2 3 3 3 3 3 3 3 3 3 2 2 1 0 0 0 0 0 0 0 1 2 3 3 1 1 1 3 3 3 2 1 0 0 0 0 0 0 0 0 0 0 0
1 2 3 3 3 2 2 2 2 2 2 2 1 0 0 0 0 0 0 0 1 2 2 2 1 0 1 2 2 1 1 0 0 0 0 0 0 0 0 0 0 0 0
0 1 2 2 2 1 1 1 1 1 1 1 0 0 0 0 0 0 0 1 2 2 2 1 0 0 0 1 1 1 0 0 0 0 0 0 0 0 0 0 0 0 0
0 0 1 1 1 0 0 0 0 0 0 0 0 0 0 0 0 0 0 1 2 3 2 1 0 0 0 0 1 0 0 0 0 0 0 0 0 0 0 0 0 0 0
Wind_Speed
5 4 3 3 3 2 2 2 1 1 1 2 3 3 4 4 4 4 4 4 4 4 4 4 3 3 2 2 2 2 2 2 3 2 1 1 2 2 2 3 2 4 5
5 5 3 3 3 2 2 2 2 2 2 2 2 3 4 4 3 4 5 4 4 4 4 3 3 3 3 3 2 2 2 2 2 3 2 2 3 3 3 4 3 4 3
5 5 4 3 3 3 2 2 2 2 2 2 2 3 3 3 3 3 3 3 3 3 3 3 3 3 3 3 3 2 2 3 2 2 3 2 2 2 2 3 3 2 3
5 5 5 4 3 3 2 2 2 2 2 2 2 3 3 3 3 3 3 3 3 3 3 3 3 3 3 3 3 2 2 2 2 2 2 2 2 2 1 2 2 2 2
4 4 4 4 3 3 3 3 2 2 2 2 2 2 2 2 2 2 3 3 3 2 2 3 3 3 3 3 3 2 2 2 2 2 3 2 2 1 2 2 2 1 2
4 4 3 3 4 4 3 3 3 2 2 2 2 2 2 2 1 2 2 2 3 3 3 3 3 3 3 4 5 3 3 3 3 3 2 2 2 2 1 2 1 1 2
4 4 4 4 4 4 4 3 3 3 2 2 2 2 2 2 3 3 3 2 2 3 3 2 3 2 1 1 3 5 5 6 6 4 3 3 3 2 2 2 2 2 2
3 3 4 4 4 3 3 3 3 3 2 2 2 2 2 2 3 3 2 2 2 2 2 2 2 1 1 1 2 3 3 3 4 4 3 3 3 2 2 3 3 2 3
2 2 2 2 2 2 3 3 3 3 2 3 2 2 2 2 4 4 3 2 2 2 2 2 2 2 1 1 1 1 1 2 2 2 3 3 4 4 2 1 2 2 3
2 2 1 1 2 2 3 3 2 2 3 3 3 3 3 3 5 5 4 2 2 2 2 1 2 2 2 1 1 1 2 2 3 2 2 4 4 4 4 3 2 3 2
1 2 1 1 2 2 2 2 2 3 3 3 3 3 3 3 6 7 6 2 2 2 1 1 1 3 3 2 2 2 3 3 3 3 2 1 1 1 1 2 3 2 3
0 1 1 1 2 2 1 2 2 3 3 3 3 3 2 3 5 7 8 6 3 2 1 0 1 3 3 3 3 4 4 3 2 2 1 2 1 1 2 2 2 3 3
1 1 1 2 2 2 3 3 3 3 3 3 3 2 2 2 4 6 7 7 6 3 2 1 2 3 3 4 5 5 4 3 2 2 2 2 2 2 2 1 2 3 4
1 2 2 3 3 3 2 3 3 3 2 2 2 1 1 1 2 3 3 4 4 4 4 3 4 5 5 5 3 4 4 3 3 2 3 2 2 2 2 2 2 3 3
2 3 4 4 4 3 3 3 3 2 3 3 2 1 1 1 1 2 2 2 2 2 2 2 3 3 4 4 3 3 3 3 3 4 3 3 2 2 2 2 3 3 3
2 3 3 3 3 3 3 3 2 3 4 4 4 3 2 2 4 4 4 3 3 2 2 3 3 3 3 3 3 3 3 3 3 3 3 2 2 3 3 2 2 2 3
2 3 3 3 3 4 3 3 3 3 4 5 6 6 5 4 4 5 5 3 2 3 3 4 3 3 3 2 2 2 2 2 2 2 2 2 2 2 2 2 2 2 2
3 3 3 3 3 3 3 3 3 3 3 3 4 7 7 7 7 6 5 3 2 3 4 4 3 3 2 2 2 1 1 2 2 2 2 2 3 3 3 3 3 3 3
3 3 2 3 3 2 3 3 3 3 3 3 3 3 6 6 5 5 5 4 4 4 4 3 3 3 2 2 2 2 2 1 2 2 2 3 3 3 3 3 3 4 4
3 4 3 3 3 3 2 2 2 2 2 2 3 3 4 4 3 4 5 5 5 4 3 3 3 3 2 1 1 1 2 2 2 2 2 2 2 2 3 3 3 4 3
3 2 3 3 3 3 2 2 2 2 2 1 1 1 4 4 4 4 4 4 4 3 3 3 2 1 1 1 1 1 2 1 1 1 1 1 2 2 2 3 3 3 3
3 3 3 3 3 2 2 2 2 1 2 2 1 1 3 3 2 2 2 2 2 2 2 2 2 1 1 1 1 1 1 1 1 1 1 2 2 2 3 3 3 3 3
3 3 3 2 2 2 3 2 1 1 2 2 2 1 1 2 2 1 1 1 1 1 1 1 1 2 1 0 1 1 0 1 1 1 2 2 2 3 3 3 4 4 3
3 3 3 2 2 2 2 2 2 2 1 1 1 2 2 2 2 2 1 1 1 0 0 0 0 1 1 1 0 1 1 0 1 1 3 3 3 3 3 3 4 4 4
3 3 3 2 2 2 2 2 2 2 2 2 2 2 2 2 2 2 2 2 2 2 2 1 1 1 2 2 1 1 1 1 1 1 2 3 3 4 4 5 4 4 4
3 3 2 2 1 2 1 2 2 2 2 2 2 1 2 2 2 2 2 2 3 3 2 2 3 3 3 2 1 1 2 1 1 1 3 3 4 4 5 4 5 4 4
Wind_Direction
174 178 175 182 193 203 200 192 197 196 198 205 200 207 210 208 207 208 219 217 218 219 224 222 223 239 249 260 247 233 239 248 262 270 257 246 250 248 232 238 217 206 206
172 170 169 178 184 198 205 193 192 194 204 215 210 211 218 215 208 212 225 226 222 221 222 224 224 229 231 253 258 255 251 246 242 257 263 258 255 230 224 230 237 232 222
172 171 170 182 186 198 210 205 202 206 210 214 211 218 228 225 212 216 223 236 227 221 221 220 223 222 234 242 248 248 256 262 242 241 256 253 248 232 229 239 241 247 247
174 174 176 183 189 195 201 212 209 205 204 215 226 221 222 227 224 222 221 236 237 228 223 220 223 215 224 245 250 245 252 268 264 257 257 253 247 239 224 231 245 242 250
179 179 183 182 181 191 201 204 201 204 208 204 223 224 232 228 238 231 230 233 233 235 237 229 220 206 212 220 241 233 242 248 256 255 252 249 246 243 241 232 231 230 250
178 183 177 177 184 192 200 197 192 194 204 206 216 223 234 240 181 193 224 248 242 236 238 232 224 204 216 218 225 231 231 240 256 260 262 259 256 255 262 258 240 259 271
185 188 182 189 196 196 204 195 189 191 196 209 222 222 218 212 182 188 214 240 242 239 236 230 253 252 211 237 225 228 241 244 237 243 258 264 269 271 277 280 278 273 262
190 198 189 192 196 195 201 198 194 191 198 211 228 231 216 211 185 188 214 229 249 241 239 240 229 242 274 279 253 232 228 247 235 231 243 261 268 271 254 249 252 261 261
190 207 201 195 198 192 203 209 198 194 204 218 219 227 213 185 181 189 191 233 225 237 241 242 199 180 235 281 259 259 270 277 267 241 225 246 258 265 257 258 252 240 267
206 205 209 203 202 201 205 206 203 207 215 221 227 236 221 187 182 185 188 226 234 233 216 196 157 151 135 143 254 258 272 290 311 302 271 261 249 247 228 212 235 251 259
215 200 203 240 232 210 198 210 212 212 218 225 230 234 219 194 181 185 185 211 258 266 232 195 173 165 171 204 233 243 249 271 286 282 276 271 256 236 216 210 212 227 246
212 176 205 242 255 229 197 218 229 221 221 228 226 233 216 191 180 191 194 209 242 276 271 192 154 174 201 234 245 252 263 270 264 265 277 274 260 252 248 232 222 229 230
334 248 230 246 250 225 206 216 227 222 224 229 227 223 220 187 170 183 197 215 230 241 265 206 205 226 237 240 238 243 249 245 247 248 257 258 257 247 252 239 231 234 246
254 262 243 237 234 219 215 220 217 218 223 235 233 235 231 190 161 177 196 209 224 231 240 232 217 227 241 252 242 226 221 223 228 241 253 252 252 251 241 232 238 234 246
239 248 245 239 229 223 222 227 219 207 200 210 233 236 233 218 186 177 189 195 214 226 235 238 230 225 226 223 217 212 208 215 228 240 246 246 247 255 255 245 239 239 244
249 254 253 237 227 220 220 216 202 204 186 193 213 225 216 184 173 167 167 181 207 199 195 239 240 241 241 231 223 219 218 223 228 230 236 239 244 254 264 263 251 252 255
273 268 265 256 242 230 224 215 208 202 207 217 218 217 221 210 201 202 203 205 209 179 215 244 243 245 249 245 231 235 234 229 235 237 234 235 238 245 256 266 267 258 257
278 272 268 266 268 266 257 244 231 219 208 214 217 215 215 218 218 215 198 177 217 217 234 244 244 240 235 236 232 229 234 225 231 238 233 236 240 245 247 250 254 255 259
285 284 277 277 275 270 268 266 255 244 220 198 185 189 208 209 212 207 187 217 240 242 239 240 248 253 244 226 224 217 222 223 232 235 231 240 240 246 256 265 266 264 259
278 282 276 278 277 273 269 277 278 261 240 210 200 186 170 184 205 201 204 223 236 245 248 245 243 242 239 236 223 226 227 222 231 236 233 243 243 245 256 258 260 264 260
285 295 278 276 286 297 307 301 291 283 278 257 237 194 180 197 213 216 209 219 227 234 244 249 251 242 230 215 226 254 255 238 245 254 259 267 270 265 265 265 268 271 274
294 293 287 292 295 300 296 286 283 284 304 297 280 207 198 222 237 236 217 214 223 224 241 249 253 259 256 255 262 267 282 296 302 300 292 283 281 279 275 276 278 280 281
288 291 295 293 287 287 283 290 304 306 298 307 334 328 246 246 249 247 223 208 227 221 233 250 263 270 261 35 65 68 13 341 328 317 306 300 292 286 283 281 284 287 286
302 301 300 310 309 306 311 316 318 322 323 328 336 333 324 325 333 333 336 320 290 248 221 232 272 334 348 7 82 111 97 24 302 299 297 287 286 287 285 286 284 284 283
319 318 310 312 322 324 327 329 338 343 344 334 334 333 330 335 341 341 355 6 4 13 8 1 30 21 339 320 320 113 125 124 141 279 287 278 274 279 280 282 280 281 282
316 318 317 319 319 326 345 347 339 332 329 328 337 2 351 342 346 353 355 4 4 2 5 14 21 26 354 354 28 118 138 138 186 259 268 267 268 274 279 277 280 280 282